Location: *
(41.0833°N, 73.4167°W)
Time: 00:29:19
(UTC+00:00)

IDEFIX/ARIANE 42P - Pass Details

Date: 22 October 2019
Orbit: 785 x 803 km, 98.3° (Epoch: 11 November)

Event Time Altitude Azimuth Distance (km) Brightness Sun altitude
Rises 08:08:20 0° 19° (NNE) 3,308 6.2 -35.1°
Reaches altitude 10° 08:10:47 10° 26° (NNE) 2,371 5.5 -34.7°
Enters shadow 08:14:52 41° 69° (ENE) 1,139 3.7 -34.0°
